GSAT 3 (EDUSAT)

导读

GSAT 3(又名EDUSAT)是印度空间研究组织研制的地球同步通信卫星,也是印度首颗专为教育设计的卫星,于2004年9月20日成功发射。该卫星发射质量1950千克,定点于东经74°静止轨道,设计寿命7年,配备多频段转发器,主要为印度提供远程教育多媒体传输服务,现已退役,是印度教育信息化发展的重要太空基础设施。

Basic Information
目录编号:
28417
目录名称:
GSAT 3 (EDUSAT)
国际标识:
2004-036A
轨道中心:
EARTH
卫星名称:
GSAT 3 (EDUSAT)
卫星全名:
--
卫星状态:
在轨 (已飞行7967 天)
发射日期:
2004-09-20 UTC
国别 :
印度 (IN)
星等 :
--
Orbit Information
数据来源 国际轨道数据 AOE轨道数据
星历时间 2026-07-14T09:51:20+0800
7小时前
查看轨道信息
2026-07-14T09:00:00+0800
8小时前
查看轨道信息
半长轴 42449.753km 42449.724km
偏心率 0.0003284 0.0003209
轨道倾角 11.410° 11.410°
近地点辐角 157.884° 157.458°
升交点赤经 41.123° 41.125°
平近点角 208.453° 196.135°
近地点 36057.675km 36057.964km
远地点 36085.557km 36085.21km
周期 1450.683分钟 1450.681分钟
每日圈数 0.992636 0.992637
Detailed Information
使用方式:
暂无
2D Orbit Map
3D Orbit Map
Orbit Altitude Analysis Chart
Orbit Inclination Analysis Chart
Orbit Comprehensive Analysis Chart
View Comprehensive Chart